Flag for Bahamas Weather past 2 weeks in Nassau, Bahamas

Now
79 °F

Passing clouds.


Feels Like: 80 °F
Forecast: N/A
Wind: 8 mph from North

Location: Nassau Airport

Current Time: Mar 31, 2015 at 6:28:17 PM

Latest Report: Mar 31, 2015 at 5:00 PM


Visibility: N/A

Pressure: 30.11 "Hg

Humidity: 58%

Dew point: 63 °F

Location of NassauLocation

Historic Weather in Nassau — Graph

°F

Nassau temperature yesterday

Maximum temperature yesterday: 75 °F (at 2:00 PM)
Minimum temperature yesterday: 66 °F (at 6:00 AM)
Average temperature yesterday: 71 °F

Past Weeks' High & Low Weather Summary

 TemperatureHumidityPressure
High86 °F (Mar 21, 2:00 PM)100% (Mar 18, 5:00 AM)30.27 "Hg (Mar 18, 5:00 AM)
Low36 °F (Mar 29, 4:00 AM)45% (Mar 20, 3:00 PM)29.90 "Hg (Mar 27, 5:00 PM)
Average76 °F73%30.07 "Hg
* Reported Mar 16 5:00 PM — Mar 31 5:00 PM, Nassau, Weather by CustomWeather, © 2015

Note: Actual official high and low records may vary slightly from our data, if they occured in-between our weather recording intervals... More about our weather records

Advertising

Nassau weather history for previous 24 hours

 ConditionsComfort  
Time TempWeatherWind HumidityBarometerVisibility
5:00 PM
Tue, Mar 31
79 °FPassing clouds.8 mph58%30.11 "HgN/A
4:00 PM77 °FPassing clouds.6 mph51%30.11 "HgN/A
3:00 PM75 °FScattered clouds.3 mph54%30.14 "HgN/A
2:00 PM77 °FScattered clouds.9 mph61%30.16 "HgN/A
1:00 PM75 °FScattered clouds.8 mph50%30.18 "HgN/A
12:00 PM73 °FScattered clouds.8 mph50%30.20 "HgN/A
11:00 AM75 °FScattered clouds.8 mph57%30.20 "HgN/A
10:00 AM73 °FScattered clouds.8 mph53%30.20 "HgN/A
9:00 AM72 °FScattered clouds.5 mph57%30.17 "HgN/A
8:00 AM66 °FPassing clouds.35 mph83%30.16 "HgN/A
7:00 AM64 °FPassing clouds.No wind78%30.12 "HgN/A
6:00 AM63 °FPassing clouds.No wind83%30.11 "HgN/A
5:00 AM63 °FPassing clouds.No wind94%30.10 "HgN/A
4:00 AM63 °FPassing clouds.No wind83%30.11 "HgN/A
3:00 AM63 °FPassing clouds.No wind83%30.13 "HgN/A
2:00 AM63 °FPassing clouds.No wind94%30.15 "HgN/A
1:00 AM66 °FPassing clouds.No wind78%30.16 "HgN/A
12:00 AM66 °FPassing clouds.No wind73%30.17 "HgN/A
11:00 PM
Mon, Mar 30
68 °FPassing clouds.No wind88%30.02 "HgN/A
10:00 PM68 °FPassing clouds.No wind69%30.21 "HgN/A
9:00 PM70 °FPassing clouds.5 mph64%30.20 "HgN/A
8:00 PM72 °FPartly sunny.No wind69%30.19 "HgN/A
7:00 PM72 °FBroken clouds.9 mph61%30.18 "HgN/A
6:00 PM72 °FBroken clouds.6 mph57%30.19 "HgN/A
Weather by CustomWeather, © 2015

See weather overviewHow to use our weather pages